GW4471 Weather Reports


time (UTC)temp
F
wind
direction
speed
knots
gust
knots
rain 1hr
in
rain 24hr
in
rain mn
in
humidity
%
barometer
mb
20260508090418 54 27 2.6 3.5 0.00 0.00 0.00 77 1017.3
20260508085417 53 50 0.9 1.7 0.00 0.00 0.00 78 1017.2
20260508084417 53 342 1.7 2.6 0.00 0.00 0.00 79 1017.3
20260508083418 53 95 0.9 1.7 0.00 0.00 0.00 79 1017.1
20260508082418 53 95 1.7 2.6 0.00 0.00 0.00 79 1017.0
20260508081417 52 27 0.9 1.7 0.00 0.00 0.00 80 1016.9
20260508080417 52 140 1.7 1.7 0.00 0.00 0.00 79 1017.1
20260508075417 52 0.0 0.9 0.00 0.00 0.00 81 1017.1
20260508073416 51 0.0 0.0 0.00 0.00 0.00 83 1017.1
20260508071416 51 162 0.9 0.9 0.00 0.00 0.00 85 1016.7
20260508070418 50 95 0.9 1.7 0.00 0.00 0.00 86 1016.6
20260508065418 49 0.0 0.0 0.00 0.00 0.00 88 1016.7
20260508064417 49 0.0 0.0 0.00 0.00 0.00 88 1016.5
20260508063417 48 0.0 0.0 0.00 0.00 0.00 89 1016.5
20260508062417 48 0.0 0.9 0.00 0.00 0.00 89 1016.4
20260508060417 47 0.0 0.9 0.00 0.00 0.00 89 1016.1
20260508055417 47 0.0 0.0 0.00 0.00 0.00 89 1016.2
20260508054416 46 0.0 0.0 0.00 0.00 0.00 89 1016.0
20260508053417 45 0.0 0.0 0.00 0.00 0.00 88 1015.9
20260508052417 44 0.0 0.0 0.00 0.00 0.00 88 1015.8
20260508051417 44 0.0 0.0 0.00 0.00 0.00 87 1015.9
20260508045416 44 0.0 0.0 0.00 0.00 0.00 86 1015.7
20260508044416 44 0.0 0.0 0.00 0.00 0.00 86 1015.7
20260508043417 44 0.0 0.0 0.00 0.00 0.00 86 1015.7
20260508041416 44 0.0 0.0 0.00 0.00 0.00 85 1015.6
20260508040417 44 0.0 0.0 0.00 0.00 0.00 85 1015.6
20260508035416 44 0.0 0.0 0.00 0.00 0.00 84 1015.6
20260508034416 45 0.0 0.0 0.00 0.00 0.00 84 1015.5
20260508033417 45 0.0 0.0 0.00 0.00 0.00 84 1015.4
20260508032416 45 0.0 0.0 0.00 0.00 0.00 84 1015.5
20260508030417 45 0.0 0.0 0.00 0.00 0.00 83 1015.5
20260508025417 46 0.0 0.0 0.00 0.00 0.00 81 1015.5
20260508024417 46 0.0 0.0 0.00 0.00 0.00 81 1015.5
20260508023416 46 0.0 0.0 0.00 0.00 0.00 80 1015.5
20260508022416 46 0.0 0.0 0.00 0.00 0.00 80 1015.5
20260508021417 47 0.0 0.0 0.00 0.00 0.00 80 1015.5
20260508020417 47 0.0 0.0 0.00 0.00 0.00 79 1015.5
20260508015416 47 0.0 0.0 0.00 0.00 0.00 78 1015.5
20260508014417 48 0.0 0.0 0.00 0.00 0.00 77 1015.6
20260508013416 48 0.0 0.0 0.00 0.00 0.00 77 1015.6
20260508012417 49 0.0 0.0 0.00 0.00 0.00 77 1015.6
20260508011416 49 0.0 0.0 0.00 0.00 0.00 76 1015.5
20260508010416 50 0.0 0.0 0.00 0.00 0.00 76 1015.5
20260508005417 50 0.0 0.0 0.00 0.00 0.00 75 1015.4
20260508004416 50 0.0 0.9 0.00 0.00 0.00 75 1015.5
20260508002417 51 0.0 0.0 0.00 0.00 0.00 75 1015.6
20260508001416 51 0.0 0.9 0.00 0.00 0.00 75 1015.6
20260508000416 51 117 0.9 2.6 0.00 0.00 0.00 74 1015.7
20260507235416 51 0.0 0.0 0.00 0.00 0.00 74 1015.7
20260507233416 51 72 0.9 1.7 0.00 0.00 0.00 73 1015.6
20260507231417 51 0.0 0.9 0.00 0.00 0.00 73 1015.5
20260507225417 51 95 0.9 1.7 0.00 0.00 0.00 72 1015.5
20260507223416 52 0.0 0.9 0.00 0.00 0.00 72 1015.3
20260507222417 52 140 1.7 3.5 0.00 0.00 0.00 72 1015.4
20260507221417 52 185 1.7 2.6 0.00 0.00 0.00 71 1015.4
20260507220416 52 207 0.9 1.7 0.00 0.00 0.00 71 1015.4
20260507215416 52 140 1.7 2.6 0.00 0.00 0.00 71 1015.5
20260507214416 52 50 1.7 3.5 0.00 0.00 0.00 71 1015.5
20260507213416 53 50 0.9 0.9 0.00 0.00 0.00 70 1015.5
20260507212417 53 162 2.6 6.1 0.00 0.00 0.00 70 1015.5
20260507211416 53 95 2.6 6.1 0.00 0.00 0.00 69 1015.5
20260507210416 53 117 0.9 1.7 0.00 0.00 0.00 69 1015.4
20260507205416 53 72 1.7 5.2 0.00 0.00 0.00 68 1015.2
20260507204416 53 140 3.5 4.3 0.00 0.00 0.00 67 1015.3
20260507202416 54 72 0.9 1.7 0.00 0.00 0.00 64 1015.1
20260507200416 54 140 1.7 3.5 0.00 0.00 0.00 62 1015.0
20260507195417 54 162 0.9 1.7 0.00 0.00 0.00 62 1014.9
20260507194415 54 117 1.7 3.5 0.00 0.00 0.00 62 1014.9
20260507193416 54 72 0.9 0.9 0.00 0.00 0.00 61 1014.8
20260507192416 55 117 1.7 5.2 0.00 0.00 0.00 61 1014.8
20260507191416 55 162 0.9 1.7 0.00 0.00 0.00 61 1014.7
20260507190416 55 162 0.9 1.7 0.00 0.00 0.00 61 1014.7
20260507185416 55 50 0.9 2.6 0.00 0.00 0.00 60 1014.7
20260507184416 55 117 1.7 2.6 0.00 0.00 0.00 60 1014.4
20260507183416 55 50 0.9 1.7 0.00 0.00 0.00 59 1014.5
20260507182416 55 117 2.6 7.0 0.00 0.00 0.00 59 1014.3
20260507181416 56 185 0.9 5.2 0.00 0.00 0.00 58 1014.4
20260507180415 56 185 0.9 6.1 0.00 0.00 0.00 59 1014.5
20260507175416 56 140 1.7 3.5 0.00 0.00 0.00 58 1014.4
20260507174415 56 50 2.6 4.3 0.00 0.00 0.00 58 1014.5
20260507172415 56 72 1.7 2.6 0.00 0.00 0.00 56 1014.5
20260507171416 56 5 0.9 1.7 0.00 0.00 0.00 57 1014.5
20260507165415 56 117 1.7 4.3 0.00 0.00 0.00 58 1014.6
20260507164415 55 207 0.9 2.6 0.00 0.00 0.00 59 1014.6
20260507163416 55 0.0 0.9 0.00 0.00 0.00 59 1014.5
20260507162415 55 140 1.7 3.5 0.00 0.00 0.00 59 1014.6
20260507161416 55 162 2.6 7.0 0.00 0.00 0.00 59 1014.7
20260507160417 55 162 2.6 5.2 0.00 0.00 0.00 59 1014.7
20260507155418 55 185 0.9 2.6 0.00 0.00 0.00 60 1014.6
20260507154418 55 0.0 0.9 0.00 0.00 0.00 60 1014.7
20260507152418 55 0.0 0.9 0.00 0.00 0.00 61 1014.9
20260507151418 55 72 1.7 3.5 0.00 0.00 0.00 60 1015.0
20260507145417 55 0.0 0.0 0.00 0.00 0.00 60 1015.0
20260507144417 55 50 0.9 1.7 0.00 0.00 0.00 60 1015.2
20260507141417 56 185 2.6 6.1 0.00 0.00 0.00 60 1015.4
20260507140418 56 185 1.7 2.6 0.00 0.00 0.00 60 1015.5
20260507135418 56 140 1.7 3.5 0.00 0.00 0.00 62 1015.5
20260507133418 56 72 1.7 3.5 0.00 0.00 0.00 63 1015.6
20260507132418 56 185 2.6 5.2 0.00 0.00 0.00 64 1015.7
20260507131417 55 140 1.7 3.5 0.00 0.00 0.00 63 1015.7
20260507130418 55 185 2.6 6.1 0.00 0.00 0.00 64 1015.7
20260507125418 55 72 1.7 2.6 0.00 0.00 0.00 66 1015.7
20260507124418 54 185 3.5 6.1 0.00 0.00 0.00 67 1015.8
20260507123418 54 50 0.9 1.7 0.00 0.00 0.00 68 1015.9
20260507122417 54 140 1.7 3.5 0.00 0.00 0.00 69 1015.8
20260507121417 53 230 0.9 1.7 0.00 0.00 0.00 71 1015.9
20260507120417 52 185 1.7 2.6 0.00 0.00 0.00 72 1015.9
20260507115418 52 185 0.9 2.6 0.00 0.00 0.00 72 1016.1
20260507113418 51 117 2.6 3.5 0.00 0.00 0.00 73 1016.1
20260507112418 51 140 1.7 3.5 0.00 0.00 0.00 74 1016.1
20260507111418 51 185 1.7 3.5 0.00 0.00 0.00 74 1016.2
20260507110417 51 95 0.9 1.7 0.00 0.00 0.00 75 1016.2
20260507105418 51 185 0.9 1.7 0.00 0.00 0.00 74 1016.3
20260507104417 51 162 2.6 4.3 0.00 0.00 0.00 74 1016.3
20260507101417 50 0.0 1.7 0.00 0.00 0.00 78 1016.1
20260507100417 50 140 0.9 1.7 0.00 0.00 0.00 77 1016.0
20260507095417 49 207 1.7 4.3 0.00 0.00 0.00 78 1016.2
20260507092417 48 162 2.6 6.1 0.00 0.00 0.00 83 1016.2
20260507091359 47 162 0.9 1.7 0.00 0.00 0.00 84 1016.3